SHT5N EGAC-EGLL

Flight info

Callsign SHT5N
Flight time 0h 49m
Altitude 31000
Route DCT DUFFY L10 RINGA Q39 BABGU DCT ETIGA DCT INKOB Q39 NOMSU UQ4 WAL UY53 NANTI/N0437F330 UY53 NUGRA NUGRA2H
Aircraft A320/M-SDE3FGHIKRWXY/S

Departure

Time 2026-04-20 13:30
Airport George Best Belfast City Airport (EGAC)

Arrival

Time 2026-04-20 14:19
Airport London Heathrow Airport (EGLL)
Time Latitude Longitude Altitude Speed Heading
2026-04-20 12:27 54.61462 -5.87188 22 ft 0 kts 156°
2026-04-20 13:18 54.61480 -5.87202 21 ft 4 kts 155°
2026-04-20 13:19 54.61500 -5.87218 23 ft 4 kts 165°
2026-04-20 13:19 54.61526 -5.87221 21 ft 4 kts 195°
2026-04-20 13:19 54.61545 -5.87207 26 ft 1 kts 215°
2026-04-20 13:19 54.61548 -5.87203 24 ft 0 kts 215°
2026-04-20 13:24 54.61546 -5.87206 22 ft 3 kts 215°
2026-04-20 13:24 54.61497 -5.87265 21 ft 12 kts 215°
2026-04-20 13:24 54.61440 -5.87333 21 ft 9 kts 214°
2026-04-20 13:25 54.61392 -5.87430 21 ft 12 kts 230°
2026-04-20 13:25 54.61314 -5.87529 19 ft 16 kts 214°
2026-04-20 13:25 54.61210 -5.87653 16 ft 19 kts 214°
2026-04-20 13:25 54.61126 -5.87754 18 ft 10 kts 215°
2026-04-20 13:26 54.61090 -5.87813 19 ft 0 kts 240°
2026-04-20 13:28 54.61089 -5.87817 19 ft 2 kts 243°
2026-04-20 13:28 54.61094 -5.87924 19 ft 14 kts 303°
2026-04-20 13:29 54.61176 -5.88007 18 ft 16 kts 24°
2026-04-20 13:29 54.61197 -5.87984 19 ft 0 kts 34°
2026-04-20 13:29 54.61217 -5.87961 18 ft 25 kts 34°
2026-04-20 13:30 54.61641 -5.87454 16 ft 118 kts 35°
2026-04-20 13:30 54.62435 -5.86499 445 ft 147 kts 36°
2026-04-20 13:30 54.63320 -5.85441 1202 ft 160 kts 34°
2026-04-20 13:30 54.64216 -5.84499 2445 ft 144 kts 32°
2026-04-20 13:31 54.65088 -5.83638 2923 ft 151 kts 31°
2026-04-20 13:31 54.66044 -5.82714 3272 ft 168 kts 31°
2026-04-20 13:31 54.67027 -5.81429 3858 ft 192 kts 52°
2026-04-20 13:31 54.67610 -5.79187 4561 ft 218 kts 82°
2026-04-20 13:32 54.67440 -5.76470 5148 ft 243 kts 115°
2026-04-20 13:32 54.66267 -5.74273 5722 ft 261 kts 150°
2026-04-20 13:32 54.64600 -5.72951 6127 ft 269 kts 158°
2026-04-20 13:32 54.62840 -5.71812 7177 ft 269 kts 160°
2026-04-20 13:33 54.61057 -5.70713 8071 ft 275 kts 160°
2026-04-20 13:33 54.59230 -5.69589 8907 ft 284 kts 160°
2026-04-20 13:33 54.57353 -5.68418 9801 ft 289 kts 159°
2026-04-20 13:33 54.55445 -5.67207 10574 ft 300 kts 159°
2026-04-20 13:34 54.53417 -5.65900 10898 ft 323 kts 159°
2026-04-20 13:34 54.51243 -5.64490 11335 ft 341 kts 159°
2026-04-20 13:34 54.49003 -5.63034 12105 ft 347 kts 159°
2026-04-20 13:34 54.46722 -5.61556 12982 ft 352 kts 159°
2026-04-20 13:35 54.44414 -5.60062 13840 ft 357 kts 159°
2026-04-20 13:35 54.42123 -5.58349 14620 ft 362 kts 150°
2026-04-20 13:35 54.40018 -5.55944 15377 ft 366 kts 140°
2026-04-20 13:35 54.38192 -5.52874 16121 ft 370 kts 128°
2026-04-20 13:36 54.36669 -5.49296 16845 ft 373 kts 123°
2026-04-20 13:36 54.35181 -5.45602 17561 ft 379 kts 123°
2026-04-20 13:36 54.33673 -5.41870 18280 ft 384 kts 123°
2026-04-20 13:36 54.32139 -5.38084 18965 ft 389 kts 123°
2026-04-20 13:37 54.30582 -5.34255 19654 ft 393 kts 123°
2026-04-20 13:37 54.29009 -5.30403 20405 ft 397 kts 124°
2026-04-20 13:37 54.27405 -5.26526 21156 ft 401 kts 125°
2026-04-20 13:37 54.25698 -5.22708 21889 ft 406 kts 127°
2026-04-20 13:38 54.23904 -5.18950 22606 ft 411 kts 129°
2026-04-20 13:38 54.22052 -5.15196 23301 ft 415 kts 129°
2026-04-20 13:38 54.20171 -5.11416 23975 ft 420 kts 129°
2026-04-20 13:38 54.18275 -5.07589 24533 ft 424 kts 129°
2026-04-20 13:39 54.16372 -5.03706 25087 ft 429 kts 129°
2026-04-20 13:39 54.14482 -4.99814 25620 ft 434 kts 128°
2026-04-20 13:39 54.12549 -4.95817 26080 ft 441 kts 129°
2026-04-20 13:39 54.10587 -4.91755 26551 ft 447 kts 129°
2026-04-20 13:40 54.08605 -4.87659 27055 ft 451 kts 129°
2026-04-20 13:40 54.06593 -4.83514 27548 ft 456 kts 129°
2026-04-20 13:40 54.04557 -4.79334 28042 ft 461 kts 129°
2026-04-20 13:40 54.02536 -4.75077 28515 ft 465 kts 128°
2026-04-20 13:41 54.00552 -4.70704 29050 ft 468 kts 126°
2026-04-20 13:41 53.98598 -4.66260 29530 ft 471 kts 126°
2026-04-20 13:41 53.96645 -4.61765 29973 ft 475 kts 126°
2026-04-20 13:41 53.94665 -4.57230 30356 ft 479 kts 126°
2026-04-20 13:42 53.92663 -4.52690 30688 ft 483 kts 126°
2026-04-20 13:42 53.88566 -4.43571 31242 ft 489 kts 128°
2026-04-20 13:42 53.86509 -4.39023 31296 ft 482 kts 127°
2026-04-20 13:43 53.82656 -4.29874 31299 ft 475 kts 124°
2026-04-20 13:43 53.78972 -4.20617 31299 ft 474 kts 123°
2026-04-20 13:44 53.75275 -4.11418 31295 ft 471 kts 124°
2026-04-20 13:44 53.71537 -4.02358 31312 ft 470 kts 124°
2026-04-20 13:45 53.67780 -3.93344 31291 ft 470 kts 125°
2026-04-20 13:45 53.64011 -3.84313 31262 ft 472 kts 125°
2026-04-20 13:46 53.60211 -3.75242 31268 ft 475 kts 125°
2026-04-20 13:46 53.56403 -3.66140 31267 ft 476 kts 125°
2026-04-20 13:47 53.52577 -3.57029 31314 ft 476 kts 125°
2026-04-20 13:47 53.48772 -3.48019 31316 ft 475 kts 125°
2026-04-20 13:48 53.45545 -3.38391 31320 ft 474 kts 112°
2026-04-20 13:48 53.42974 -3.28224 31305 ft 473 kts 112°
2026-04-20 13:49 53.40385 -3.18083 31308 ft 473 kts 112°
2026-04-20 13:49 53.37020 -3.08552 31306 ft 473 kts 127°
2026-04-20 13:50 53.33085 -2.99734 31327 ft 472 kts 127°
2026-04-20 13:50 53.29190 -2.91006 31323 ft 471 kts 127°
2026-04-20 13:51 53.25277 -2.82250 31323 ft 470 kts 127°
2026-04-20 13:51 53.21364 -2.73522 31287 ft 470 kts 127°
2026-04-20 13:52 53.17426 -2.64802 31275 ft 471 kts 127°
2026-04-20 13:52 53.13471 -2.56091 31274 ft 472 kts 127°
2026-04-20 13:53 53.10280 -2.48619 31307 ft 472 kts 124°
2026-04-20 13:53 53.06668 -2.39593 31311 ft 472 kts 123°
2026-04-20 13:54 53.02690 -2.30980 31307 ft 470 kts 137°
2026-04-20 13:54 52.97461 -2.24594 31275 ft 467 kts 150°
2026-04-20 13:55 52.91953 -2.18851 31265 ft 469 kts 150°
2026-04-20 13:55 52.86426 -2.13071 31266 ft 470 kts 150°
2026-04-20 13:56 52.80887 -2.07279 31270 ft 472 kts 150°
2026-04-20 13:56 52.75295 -2.01456 31254 ft 471 kts 150°
2026-04-20 13:57 52.72525 -1.98584 30637 ft 472 kts 151°
2026-04-20 13:57 52.69776 -1.95741 29915 ft 472 kts 151°
2026-04-20 13:57 52.67005 -1.92878 29309 ft 468 kts 151°
2026-04-20 13:57 52.64258 -1.90044 28750 ft 463 kts 151°
2026-04-20 13:58 52.61538 -1.87244 28223 ft 459 kts 151°
2026-04-20 13:58 52.58850 -1.84480 27701 ft 454 kts 151°
2026-04-20 13:58 52.56183 -1.81741 27293 ft 448 kts 151°
2026-04-20 13:58 52.53542 -1.79032 26949 ft 446 kts 151°
2026-04-20 13:59 52.50916 -1.76345 26338 ft 444 kts 151°
2026-04-20 13:59 52.48291 -1.73662 25798 ft 443 kts 152°
2026-04-20 13:59 52.45674 -1.70993 25244 ft 443 kts 152°
2026-04-20 13:59 52.43061 -1.68326 24719 ft 442 kts 152°
2026-04-20 14:00 52.40449 -1.65661 24187 ft 441 kts 152°
2026-04-20 14:00 52.37852 -1.63012 23646 ft 440 kts 152°
2026-04-20 14:00 52.35262 -1.60376 23114 ft 436 kts 151°
2026-04-20 14:00 52.32696 -1.57772 22606 ft 433 kts 151°
2026-04-20 14:01 52.30147 -1.55190 22123 ft 429 kts 151°
2026-04-20 14:01 52.27613 -1.52630 21588 ft 427 kts 151°
2026-04-20 14:01 52.25096 -1.50095 21058 ft 425 kts 151°
2026-04-20 14:01 52.22583 -1.47558 20519 ft 424 kts 149°
2026-04-20 14:02 52.20242 -1.44650 20030 ft 423 kts 140°
2026-04-20 14:02 52.18036 -1.41538 19619 ft 417 kts 140°
2026-04-20 14:02 52.15850 -1.38479 19193 ft 411 kts 140°
2026-04-20 14:02 52.13692 -1.35474 18775 ft 406 kts 140°
2026-04-20 14:03 52.11563 -1.32519 18338 ft 400 kts 140°
2026-04-20 14:03 52.09462 -1.29608 17923 ft 392 kts 140°
2026-04-20 14:03 52.07436 -1.26801 17531 ft 384 kts 140°
2026-04-20 14:03 52.05426 -1.24013 17142 ft 376 kts 140°
2026-04-20 14:04 52.03453 -1.21279 16754 ft 370 kts 140°
2026-04-20 14:04 52.01490 -1.18566 16350 ft 370 kts 140°
2026-04-20 14:04 51.99536 -1.15872 15975 ft 368 kts 140°
2026-04-20 14:04 51.97595 -1.13194 15604 ft 365 kts 140°
2026-04-20 14:05 51.95674 -1.10537 15236 ft 361 kts 140°
2026-04-20 14:05 51.93750 -1.07877 14419 ft 366 kts 140°
2026-04-20 14:05 51.91846 -1.05249 14059 ft 350 kts 140°
2026-04-20 14:05 51.90056 -1.02789 13911 ft 326 kts 140°
2026-04-20 14:06 51.88390 -1.00500 13771 ft 304 kts 140°
2026-04-20 14:06 51.86795 -0.98370 13360 ft 297 kts 147°
2026-04-20 14:06 51.84894 -0.97225 13105 ft 288 kts 175°
2026-04-20 14:06 51.82925 -0.97023 12975 ft 279 kts 180°
2026-04-20 14:07 51.81002 -0.96955 12759 ft 274 kts 180°
2026-04-20 14:07 51.79109 -0.96906 12459 ft 270 kts 181°
2026-04-20 14:07 51.77230 -0.96856 11924 ft 270 kts 181°
2026-04-20 14:07 51.75366 -0.96829 11452 ft 267 kts 181°
2026-04-20 14:08 51.73516 -0.96814 10972 ft 265 kts 181°
2026-04-20 14:08 51.71686 -0.96823 10525 ft 261 kts 181°
2026-04-20 14:08 51.69874 -0.96841 10060 ft 259 kts 181°
2026-04-20 14:08 51.68069 -0.96864 9509 ft 259 kts 181°
2026-04-20 14:09 51.66273 -0.96903 9011 ft 257 kts 181°
2026-04-20 14:09 51.64502 -0.96960 8548 ft 253 kts 180°
2026-04-20 14:09 51.62743 -0.97047 8035 ft 252 kts 181°
2026-04-20 14:09 51.60998 -0.97160 7594 ft 249 kts 180°
2026-04-20 14:10 51.59282 -0.97287 7166 ft 245 kts 181°
2026-04-20 14:10 51.57605 -0.97425 6927 ft 234 kts 180°
2026-04-20 14:10 51.56030 -0.97583 6803 ft 220 kts 181°
2026-04-20 14:10 51.54552 -0.97726 6667 ft 206 kts 181°
2026-04-20 14:11 51.53157 -0.97880 6406 ft 197 kts 181°
2026-04-20 14:11 51.51796 -0.97999 5972 ft 195 kts 175°
2026-04-20 14:11 51.50569 -0.97316 5545 ft 185 kts 137°
2026-04-20 14:11 51.49678 -0.95850 5115 ft 184 kts 127°
2026-04-20 14:12 51.48862 -0.94274 4685 ft 184 kts 125°
2026-04-20 14:12 51.48054 -0.92699 4285 ft 182 kts 121°
2026-04-20 14:12 51.47572 -0.90900 4069 ft 170 kts 98°
2026-04-20 14:12 51.47511 -0.89092 4010 ft 157 kts 86°
2026-04-20 14:13 51.47524 -0.87358 4005 ft 154 kts 87°
2026-04-20 14:13 51.47538 -0.85627 4006 ft 156 kts 87°
2026-04-20 14:13 51.47550 -0.83880 4006 ft 157 kts 87°
2026-04-20 14:13 51.47563 -0.82130 4006 ft 156 kts 86°
2026-04-20 14:14 51.47575 -0.80386 3965 ft 156 kts 86°
2026-04-20 14:14 51.47586 -0.78655 3822 ft 154 kts 86°
2026-04-20 14:14 51.47597 -0.76945 3638 ft 152 kts 86°
2026-04-20 14:14 51.47608 -0.75239 3437 ft 153 kts 87°
2026-04-20 14:15 51.47619 -0.73525 3232 ft 153 kts 87°
2026-04-20 14:15 51.47630 -0.71838 3024 ft 154 kts 87°
2026-04-20 14:15 51.47640 -0.70134 2814 ft 153 kts 87°
2026-04-20 14:15 51.47650 -0.68427 2603 ft 153 kts 87°
2026-04-20 14:16 51.47660 -0.66693 2394 ft 152 kts 87°
2026-04-20 14:16 51.47669 -0.65017 2184 ft 152 kts 86°
2026-04-20 14:16 51.47678 -0.63290 1971 ft 153 kts 88°
2026-04-20 14:16 51.47687 -0.61611 1762 ft 152 kts 87°
2026-04-20 14:17 51.47696 -0.59929 1533 ft 150 kts 87°
2026-04-20 14:17 51.47704 -0.58263 1348 ft 150 kts 88°
2026-04-20 14:17 51.47712 -0.56597 1158 ft 149 kts 87°
2026-04-20 14:17 51.47720 -0.54945 930 ft 144 kts 88°
2026-04-20 14:18 51.47722 -0.53429 748 ft 131 kts 87°
2026-04-20 14:18 51.47721 -0.51988 539 ft 130 kts 88°
2026-04-20 14:18 51.47728 -0.50556 412 ft 128 kts 85°
2026-04-20 14:18 51.47747 -0.49134 209 ft 126 kts 86°
2026-04-20 14:19 51.47753 -0.47733 95 ft 120 kts 86°
2026-04-20 14:19 51.47759 -0.46576 89 ft 83 kts 90°
2026-04-20 14:19 51.47760 -0.45928 85 ft 37 kts 90°
2026-04-20 14:19 51.47756 -0.45541 86 ft 28 kts 109°
2026-04-20 14:20 51.47608 -0.45492 87 ft 18 kts 224°
2026-04-20 14:20 51.47597 -0.45694 86 ft 20 kts 270°
2026-04-20 14:20 51.47596 -0.45928 88 ft 22 kts 269°
2026-04-20 14:20 51.47595 -0.46193 86 ft 25 kts 269°
2026-04-20 14:21 51.47593 -0.46485 86 ft 28 kts 269°
2026-04-20 14:21 51.47591 -0.46794 86 ft 26 kts 268°
2026-04-20 14:21 51.47583 -0.47045 87 ft 23 kts 269°
2026-04-20 14:21 51.47581 -0.47313 88 ft 25 kts 269°
2026-04-20 14:22 51.47580 -0.47602 90 ft 27 kts 270°
2026-04-20 14:22 51.47580 -0.47881 88 ft 25 kts 270°
2026-04-20 14:22 51.47579 -0.48155 88 ft 23 kts 270°
2026-04-20 14:22 51.47577 -0.48417 89 ft 19 kts 262°
2026-04-20 14:23 51.47490 -0.48517 87 ft 14 kts 244°
2026-04-20 14:23 51.47487 -0.48687 88 ft 17 kts 269°
2026-04-20 14:23 51.47486 -0.48817 87 ft 6 kts 270°
2026-04-20 14:23 51.47470 -0.48885 88 ft 8 kts 213°
2026-04-20 14:24 51.47417 -0.48891 88 ft 6 kts 178°
2026-04-20 14:24 51.47406 -0.48891 86 ft 1 kts 179°
2026-04-20 14:24 51.47404 -0.48891 86 ft 0 kts 179°